| time (UTC) | temp F | wind direction | speed MPH | gust MPH | rain 1hr in | rain 24hr in | rain mn in | humidity % | barometer mb |
| 20260508121704 | 71 | 40 | 6.0 | 24.0 | 0.00 | 0.00 | 0.00 | 83 | 1011.4 |
| 20260508120703 | 71 | 30 | 8.0 | 20.0 | 0.00 | 0.00 | 0.00 | 83 | 1011.4 |
| 20260508115703 | 71 | 40 | 8.0 | 20.0 | 0.00 | 0.00 | 0.00 | 83 | 1011.4 |
| 20260508114704 | 71 | 30 | 9.0 | 20.0 | 0.00 | 0.00 | 0.00 | 83 | 1011.4 |
| 20260508113704 | 71 | 40 | 9.0 | 20.0 | 0.00 | 0.00 | 0.00 | 83 | 1011.4 |
| 20260508112704 | 71 | 30 | 9.0 | 20.0 | 0.00 | 0.00 | 0.00 | 83 | 1011.4 |
| 20260508111704 | 71 | 40 | 8.0 | 20.0 | 0.00 | 0.00 | 0.00 | 83 | 1011.4 |
| 20260508110704 | 71 | 40 | 9.0 | 24.0 | 0.00 | 0.00 | 0.00 | 84 | 1011.1 |
| 20260508105704 | 71 | 20 | 8.0 | 24.0 | 0.00 | 0.00 | 0.00 | 84 | 1011.1 |
| 20260508104704 | 72 | 40 | 7.0 | 24.0 | 0.00 | 0.00 | 0.00 | 83 | 1010.9 |
| 20260508103703 | 72 | 30 | 8.0 | 24.0 | 0.00 | 0.00 | 0.00 | 84 | 1010.9 |
| 20260508102704 | 72 | 20 | 8.0 | 24.0 | 0.00 | 0.00 | 0.00 | 84 | 1010.7 |
| 20260508101703 | 72 | 30 | 9.0 | 24.0 | 0.00 | 0.00 | 0.00 | 83 | 1010.6 |
| 20260508100703 | 72 | 20 | 9.0 | 23.0 | 0.00 | 0.00 | 0.00 | 83 | 1010.6 |
| 20260508095704 | 72 | 30 | 9.0 | 23.0 | 0.00 | 0.00 | 0.00 | 83 | 1010.7 |
| 20260508094704 | 72 | 30 | 9.0 | 23.0 | 0.00 | 0.00 | 0.00 | 83 | 1010.6 |
| 20260508093703 | 73 | 30 | 8.0 | 23.0 | 0.00 | 0.00 | 0.00 | 83 | 1010.4 |
| 20260508092703 | 73 | 30 | 9.0 | 23.0 | 0.00 | 0.00 | 0.00 | 82 | 1010.3 |
| 20260508091703 | 73 | 30 | 7.0 | 23.0 | 0.00 | 0.00 | 0.00 | 82 | 1010.3 |
| 20260508090703 | 73 | 30 | 8.0 | 21.0 | 0.00 | 0.00 | 0.00 | 81 | 1010.3 |
| 20260508085704 | 74 | 40 | 8.0 | 21.0 | 0.00 | 0.00 | 0.00 | 81 | 1010.4 |
| 20260508084704 | 74 | 30 | 10.0 | 21.0 | 0.00 | 0.00 | 0.00 | 80 | 1010.4 |
| 20260508083703 | 74 | 10 | 8.0 | 21.0 | 0.00 | 0.00 | 0.00 | 80 | 1010.2 |
| 20260508082704 | 74 | 30 | 7.0 | 21.0 | 0.00 | 0.00 | 0.00 | 81 | 1010.0 |
| 20260508081703 | 75 | 30 | 6.0 | 21.0 | 0.00 | 0.00 | 0.00 | 80 | 1009.8 |
| 20260508080704 | 75 | 30 | 7.0 | 23.0 | 0.00 | 0.00 | 0.00 | 80 | 1009.8 |
| 20260508075704 | 75 | 40 | 8.0 | 23.0 | 0.00 | 0.00 | 0.00 | 79 | 1009.8 |
| 20260508074704 | 75 | 30 | 8.0 | 23.0 | 0.00 | 0.00 | 0.00 | 80 | 1009.8 |
| 20260508073703 | 75 | 40 | 9.0 | 23.0 | 0.00 | 0.00 | 0.00 | 80 | 1009.8 |
| 20260508072703 | 75 | 30 | 8.0 | 23.0 | 0.00 | 0.00 | 0.00 | 79 | 1009.8 |
| 20260508071703 | 76 | 30 | 8.0 | 23.0 | 0.00 | 0.00 | 0.00 | 77 | 1009.8 |
| 20260508070703 | 77 | 30 | 11.0 | 19.0 | 0.00 | 0.00 | 0.00 | 75 | 1009.7 |
| 20260508065704 | 77 | 20 | 8.0 | 19.0 | 0.00 | 0.00 | 0.00 | 77 | 1009.7 |
| 20260508064703 | 78 | 10 | 9.0 | 19.0 | 0.00 | 0.00 | 0.00 | 76 | 1009.6 |
| 20260508063703 | 78 | 20 | 9.0 | 19.0 | 0.00 | 0.00 | 0.00 | 74 | 1009.7 |
| 20260508062703 | 78 | 20 | 9.0 | 19.0 | 0.00 | 0.00 | 0.00 | 74 | 1009.8 |
| 20260508061704 | 78 | 30 | 8.0 | 19.0 | 0.00 | 0.00 | 0.00 | 75 | 1009.8 |
| 20260508060704 | 78 | 30 | 8.0 | 24.0 | 0.00 | 0.00 | 0.00 | 74 | 1009.8 |
| 20260508055704 | 79 | 30 | 9.0 | 24.0 | 0.00 | 0.00 | 0.00 | 75 | 1009.9 |
| 20260508054705 | 78 | 30 | 9.0 | 24.0 | 0.00 | 0.00 | 0.00 | 76 | 1009.8 |
| 20260508053703 | 78 | 30 | 7.0 | 24.0 | 0.00 | 0.00 | 0.00 | 76 | 1010.1 |
| 20260508052703 | 78 | 20 | 10.0 | 24.0 | 0.00 | 0.00 | 0.00 | 74 | 1010.4 |
| 20260508051704 | 80 | 40 | 8.0 | 24.0 | 0.00 | 0.00 | 0.00 | 74 | 1010.3 |
| 20260508050704 | 78 | 30 | 9.0 | 23.0 | 0.00 | 0.00 | 0.00 | 75 | 1010.4 |
| 20260508045703 | 78 | 20 | 8.0 | 23.0 | 0.00 | 0.00 | 0.00 | 78 | 1010.4 |
| 20260508044703 | 78 | 40 | 9.0 | 23.0 | 0.00 | 0.00 | 0.00 | 77 | 1010.3 |
| 20260508043704 | 78 | 30 | 9.0 | 23.0 | 0.00 | 0.00 | 0.00 | 76 | 1010.4 |
| 20260508042704 | 79 | 40 | 9.0 | 23.0 | 0.00 | 0.00 | 0.00 | 74 | 1010.7 |
| 20260508041703 | 78 | 40 | 9.0 | 23.0 | 0.00 | 0.00 | 0.00 | 76 | 1010.7 |
| 20260508040703 | 78 | 50 | 9.0 | 19.0 | 0.00 | 0.00 | 0.00 | 78 | 1010.8 |
| 20260508035703 | 78 | 30 | 7.0 | 19.0 | 0.00 | 0.00 | 0.00 | 76 | 1010.9 |
| 20260508034704 | 78 | 30 | 8.0 | 19.0 | 0.00 | 0.00 | 0.00 | 79 | 1010.9 |
| 20260508033704 | 78 | 30 | 7.0 | 19.0 | 0.00 | 0.00 | 0.00 | 79 | 1010.9 |
| 20260508032704 | 78 | 30 | 8.0 | 19.0 | 0.00 | 0.00 | 0.00 | 79 | 1011.1 |
| 20260508031703 | 78 | 30 | 9.0 | 19.0 | 0.00 | 0.00 | 0.00 | 81 | 1011.2 |
| 20260508030703 | 78 | 30 | 8.0 | 15.0 | 0.00 | 0.00 | 0.00 | 80 | 1011.2 |
| 20260508025703 | 78 | 30 | 9.0 | 15.0 | 0.00 | 0.00 | 0.00 | 81 | 1011.2 |
| 20260508024703 | 78 | 30 | 8.0 | 15.0 | 0.00 | 0.00 | 0.00 | 80 | 1011.1 |
| 20260508023703 | 80 | 30 | 8.0 | 15.0 | 0.00 | 0.00 | 0.00 | 78 | 1011.0 |
| 20260508022705 | 80 | 40 | 6.0 | 15.0 | 0.00 | 0.00 | 0.00 | 78 | 1011.0 |
| 20260508021703 | 81 | 30 | 6.0 | 15.0 | 0.00 | 0.00 | 0.00 | 76 | 1011.1 |
| 20260508020703 | 81 | 50 | 4.0 | 13.0 | 0.00 | 0.00 | 0.00 | 77 | 1011.0 |
| 20260508015704 | 80 | 30 | 6.0 | 13.0 | 0.00 | 0.00 | 0.00 | 79 | 1011.1 |
| 20260508014704 | 80 | 20 | 5.0 | 13.0 | 0.00 | 0.00 | 0.00 | 79 | 1011.3 |
| 20260508013703 | 79 | 50 | 5.0 | 13.0 | 0.00 | 0.00 | 0.00 | 79 | 1011.2 |
| 20260508012704 | 79 | 40 | 6.0 | 13.0 | 0.00 | 0.00 | 0.00 | 79 | 1011.2 |
| 20260508011703 | 79 | 30 | 5.0 | 13.0 | 0.00 | 0.00 | 0.00 | 80 | 1011.1 |
| 20260508010703 | 78 | 20 | 6.0 | 10.0 | 0.00 | 0.00 | 0.00 | 82 | 1011.1 |
| 20260508005703 | 78 | 10 | 6.0 | 10.0 | 0.00 | 0.00 | 0.00 | 84 | 1011.1 |
| 20260508004703 | 78 | 20 | 4.0 | 10.0 | 0.00 | 0.00 | 0.00 | 84 | 1010.9 |
| 20260508003703 | 78 | 30 | 4.0 | 10.0 | 0.00 | 0.00 | 0.00 | 85 | 1010.7 |
| 20260508002703 | 78 | 10 | 7.0 | 10.0 | 0.00 | 0.00 | 0.00 | 86 | 1010.6 |
| 20260508001703 | 78 | 20 | 5.0 | 10.0 | 0.00 | 0.00 | 0.00 | 86 | 1010.6 |
| 20260508000703 | 78 | 30 | 4.0 | 5.0 | 0.00 | 0.00 | 0.00 | 87 | 1010.5 |
| 20260507235703 | 77 | 20 | 3.0 | 5.0 | 0.00 | 0.00 | 0.00 | 88 | 1010.5 |
| 20260507234703 | 77 | 20 | 2.0 | 5.0 | 0.00 | 0.00 | 0.00 | 89 | 1010.4 |
| 20260507233703 | 77 | 20 | 1.0 | 5.0 | 0.00 | 0.00 | 0.00 | 89 | 1010.4 |
| 20260507232703 | 77 | 0 | 0.0 | 5.0 | 0.00 | 0.00 | 0.00 | 88 | 1010.3 |
| 20260507231703 | 76 | 50 | 2.0 | 5.0 | 0.00 | 0.00 | 0.00 | 88 | 1010.2 |
| 20260507230703 | 76 | 70 | 2.0 | 3.0 | 0.00 | 0.00 | 0.00 | 88 | 1010.1 |
| 20260507225703 | 76 | 60 | 2.0 | 3.0 | 0.00 | 0.00 | 0.00 | 88 | 1010.1 |
| 20260507224703 | 75 | 60 | 2.0 | 3.0 | 0.00 | 0.00 | 0.00 | 88 | 1010.0 |
| 20260507223703 | 75 | 60 | 2.0 | 3.0 | 0.00 | 0.00 | 0.00 | 88 | 1010.0 |
| 20260507222703 | 75 | 10 | 1.0 | 3.0 | 0.00 | 0.00 | 0.00 | 89 | 1010.0 |
| 20260507221703 | 75 | 30 | 1.0 | 3.0 | 0.00 | 0.00 | 0.00 | 89 | 1009.8 |
| 20260507220703 | 75 | 70 | 1.0 | 5.0 | 0.00 | 0.00 | 0.00 | 88 | 1009.6 |
| 20260507215705 | 75 | 100 | 1.0 | 5.0 | 0.00 | 0.00 | 0.00 | 89 | 1009.4 |
| 20260507214704 | 74 | 90 | 1.0 | 5.0 | 0.00 | 0.00 | 0.00 | 89 | 1009.3 |
| 20260507213703 | 74 | 0 | 0.0 | 5.0 | 0.00 | 0.00 | 0.00 | 89 | 1009.5 |
| 20260507212704 | 74 | 50 | 1.0 | 5.0 | 0.00 | 0.00 | 0.00 | 90 | 1009.4 |
| 20260507211703 | 74 | 70 | 1.0 | 5.0 | 0.00 | 0.00 | 0.00 | 89 | 1009.2 |
| 20260507210703 | 74 | 70 | 2.0 | 6.0 | 0.00 | 0.00 | 0.00 | 88 | 1009.1 |
| 20260507205704 | 74 | 70 | 2.0 | 6.0 | 0.00 | 0.00 | 0.00 | 87 | 1009.0 |
| 20260507204704 | 74 | 50 | 3.0 | 6.0 | 0.00 | 0.00 | 0.00 | 87 | 1009.0 |
| 20260507203703 | 74 | 60 | 2.0 | 6.0 | 0.00 | 0.00 | 0.00 | 88 | 1008.9 |
| 20260507202705 | 74 | 60 | 2.0 | 6.0 | 0.00 | 0.00 | 0.00 | 87 | 1008.7 |
| 20260507201703 | 74 | 90 | 1.0 | 6.0 | 0.00 | 0.00 | 0.00 | 86 | 1008.7 |
| 20260507200704 | 74 | 70 | 2.0 | 6.0 | 0.00 | 0.00 | 0.00 | 86 | 1008.6 |
| 20260507195704 | 74 | 70 | 1.0 | 6.0 | 0.00 | 0.00 | 0.00 | 87 | 1008.5 |
| 20260507194703 | 74 | 110 | 2.0 | 6.0 | 0.00 | 0.00 | 0.00 | 87 | 1008.4 |
| 20260507193703 | 75 | 110 | 3.0 | 6.0 | 0.00 | 0.00 | 0.00 | 87 | 1008.3 |
| 20260507192704 | 75 | 110 | 2.0 | 6.0 | 0.00 | 0.00 | 0.00 | 88 | 1008.3 |
| 20260507191703 | 75 | 140 | 1.0 | 6.0 | 0.00 | 0.00 | 0.00 | 88 | 1008.4 |
| 20260507190703 | 75 | 140 | 1.0 | 4.0 | 0.00 | 0.00 | 0.00 | 90 | 1008.4 |
| 20260507185703 | 75 | 130 | 2.0 | 4.0 | 0.00 | 0.00 | 0.00 | 90 | 1008.4 |
| 20260507184703 | 75 | 120 | 2.0 | 4.0 | 0.00 | 0.00 | 0.00 | 90 | 1008.4 |
| 20260507183703 | 75 | 70 | 2.0 | 4.0 | 0.00 | 0.00 | 0.00 | 91 | 1008.4 |
| 20260507182703 | 75 | 60 | 2.0 | 4.0 | 0.00 | 0.00 | 0.00 | 91 | 1008.3 |
| 20260507181703 | 75 | 70 | 2.0 | 4.0 | 0.00 | 0.00 | 0.00 | 89 | 1008.4 |
| 20260507180703 | 75 | 80 | 1.0 | 3.0 | 0.00 | 0.00 | 0.00 | 91 | 1008.4 |
| 20260507175704 | 75 | 70 | 1.0 | 3.0 | 0.00 | 0.00 | 0.00 | 90 | 1008.4 |
| 20260507174704 | 75 | 80 | 1.0 | 3.0 | 0.00 | 0.00 | 0.00 | 91 | 1008.3 |
| 20260507173703 | 75 | 0 | 0.0 | 3.0 | 0.00 | 0.00 | 0.00 | 91 | 1008.3 |
| 20260507172704 | 75 | 0 | 0.0 | 3.0 | 0.00 | 0.00 | 0.00 | 91 | 1008.3 |
| 20260507171704 | 75 | 0 | 0.0 | 3.0 | 0.00 | 0.00 | 0.00 | 90 | 1008.4 |
| 20260507170705 | 75 | 0 | 0.0 | 5.0 | 0.00 | 0.00 | 0.00 | 93 | 1008.4 |
| 20260507165703 | 75 | 0 | 0.0 | 5.0 | 0.00 | 0.00 | 0.00 | 92 | 1008.4 |
| 20260507164704 | 75 | 0 | 0.0 | 5.0 | 0.00 | 0.00 | 0.00 | 90 | 1008.4 |
| 20260507163703 | 76 | 50 | 1.0 | 5.0 | 0.00 | 0.00 | 0.00 | 88 | 1008.5 |
| 20260507162703 | 76 | 30 | 1.0 | 5.0 | 0.00 | 0.00 | 0.00 | 89 | 1008.6 |
| 20260507161703 | 76 | 60 | 1.0 | 5.0 | 0.00 | 0.00 | 0.00 | 87 | 1008.6 |
| 20260507160703 | 77 | 80 | 1.0 | 6.0 | 0.00 | 0.00 | 0.00 | 85 | 1008.7 |
| 20260507155703 | 76 | 110 | 1.0 | 6.0 | 0.00 | 0.00 | 0.00 | 86 | 1008.7 |
| 20260507154703 | 77 | 120 | 2.0 | 6.0 | 0.00 | 0.00 | 0.00 | 85 | 1008.8 |
| 20260507153703 | 76 | 110 | 1.0 | 6.0 | 0.00 | 0.00 | 0.00 | 86 | 1008.9 |
| 20260507152704 | 77 | 120 | 2.0 | 6.0 | 0.00 | 0.00 | 0.00 | 85 | 1008.9 |
| 20260507151703 | 77 | 130 | 2.0 | 6.0 | 0.00 | 0.00 | 0.00 | 86 | 1009.0 |
| 20260507150704 | 77 | 110 | 2.0 | 4.0 | 0.00 | 0.00 | 0.00 | 86 | 1009.1 |
| 20260507145705 | 77 | 120 | 2.0 | 4.0 | 0.00 | 0.00 | 0.00 | 87 | 1009.1 |
| 20260507144704 | 78 | 110 | 2.0 | 4.0 | 0.00 | 0.00 | 0.00 | 86 | 1009.1 |
| 20260507143704 | 77 | 100 | 1.0 | 4.0 | 0.00 | 0.00 | 0.00 | 86 | 1009.0 |
| 20260507142705 | 78 | 100 | 1.0 | 4.0 | 0.00 | 0.00 | 0.00 | 86 | 1009.0 |
| 20260507141704 | 78 | 120 | 2.0 | 4.0 | 0.00 | 0.00 | 0.00 | 86 | 1009.0 |
| 20260507140703 | 78 | 100 | 1.0 | 4.0 | 0.00 | 0.00 | 0.00 | 86 | 1008.9 |
| 20260507135704 | 78 | 110 | 2.0 | 4.0 | 0.00 | 0.00 | 0.00 | 86 | 1008.9 |
| 20260507134703 | 78 | 80 | 1.0 | 4.0 | 0.00 | 0.00 | 0.00 | 86 | 1008.8 |
| 20260507133703 | 77 | 70 | 2.0 | 4.0 | 0.00 | 0.00 | 0.00 | 88 | 1008.8 |
| 20260507132704 | 77 | 60 | 3.0 | 4.0 | 0.00 | 0.00 | 0.00 | 88 | 1008.7 |
| 20260507131703 | 77 | 50 | 3.0 | 4.0 | 0.00 | 0.00 | 0.00 | 88 | 1008.7 |
| 20260507130703 | 78 | 80 | 2.0 | 5.0 | 0.00 | 0.00 | 0.00 | 86 | 1008.6 |
| 20260507125703 | 78 | 100 | 2.0 | 5.0 | 0.00 | 0.00 | 0.00 | 84 | 1008.5 |
| 20260507124704 | 78 | 90 | 2.0 | 5.0 | 0.00 | 0.00 | 0.00 | 83 | 1008.5 |
| 20260507123703 | 78 | 100 | 1.0 | 5.0 | 0.00 | 0.00 | 0.00 | 83 | 1008.5 |
| 20260507122705 | 78 | 100 | 1.0 | 5.0 | 0.00 | 0.00 | 0.00 | 83 | 1008.4 |